This demonstration page uses our WeatherBlox Daily Observations layout. Learn more.

Left ArrowRight Arrow

Hourly Observations for May 20, 2015

Temp ( °F °C ) Dew Point ( °F °C ) Humidity (%) Winds ( mph kmh ) Pressure ( in mb ) Visibility ( mi km ) Precip ( " mm )
12:53 am 00:53 Clear 50 10 41 5 71 71 N 5 7 30.16 1022 10 16 0.00 0.00
1:53 am 01:53 Clear 47 8.3 41 5 80 80 NNW 3 6 30.17 1022 10 16 0.00 0.00
2:53 am 02:53 Clear 46 7.8 41 5 83 83 NNW 5 7 30.17 1022 9 14 0.00 0.00
3:53 am 03:53 Clear 46 7.8 40 4.4 79 79 NNW 6 9 30.16 1021 10 16 0.00 0.00
4:53 am 04:53 Clear 45 7.2 38 3.3 77 77 NNW 5 7 30.16 1021 10 16 0.00 0.00
5:53 am 05:53 Clear 44 6.7 37 2.8 76 76 NNW 6 9 30.16 1021 10 16 0.00 0.00
6:53 am 06:53 Sunny 43 6.1 36 2.2 76 76 N 3 6 30.17 1022 10 16 0.00 0.00
7:53 am 07:53 Sunny 45 7.2 35 1.7 68 68 N 12 19 30.19 1022 10 16 0.00 0.00
8:53 am 08:53 Sunny 48 8.9 36 2.2 63 63 NNE 9 15 30.20 1023 10 16 0.00 0.00
9:53 am 09:53 Sunny 51 10.6 38 3.3 61 61 E 12 19 30.17 1022 10 16 0.00 0.00
10:53 am 10:53 Sunny 52 11.1 37 2.8 57 57 Calm 30.16 1021 10 16 0.00 0.00
11:53 am 11:53 Sunny 55 12.8 40 4.4 57 57 N 7 11 30.17 1022 10 16 0.00 0.00
12:53 pm 12:53 Sunny 56 13.3 40 4.4 55 55 VRB 3 6 30.16 1021 10 16 0.00 0.00
1:53 pm 13:53 Sunny 59 15 42 5.6 54 54 VRB 6 9 30.14 1021 10 16 0.00 0.00
2:53 pm 14:53 Sunny 58 14.4 41 5 53 53 E 5 7 30.12 1020 10 16 0.00 0.00
3:53 pm 15:53 Partly Cloudy 59 15 43 6.1 56 56 NE 9 15 30.10 1019 10 16 0.00 0.00
4:53 pm 16:53 Mostly Sunny 59 15 43 6.1 56 56 NE 7 11 30.09 1019 10 16 0.00 0.00
5:53 pm 17:53 Cloudy 57 13.9 42 5.6 58 58 ENE 8 13 30.08 1019 10 16 0.00 0.00
6:53 pm 18:53 Cloudy 57 13.9 43 6.1 60 60 ENE 10 17 30.03 1017 10 16 0.00 0.03
7:53 pm 19:53 Mostly Cloudy 57 13.9 44 6.7 62 62 NE 5 7 30.02 1017 10 16 0.00 0.00
8:53 pm 20:53 Cloudy with Light Rain 57 13.9 43 6.1 60 60 NE 7 11 30.01 1016 10 16 0.00 0.03
9:53 pm 21:53 Cloudy 55 12.8 46 7.8 72 72 N 6 9 30.02 1017 10 16 0.00 0.03
10:53 pm 22:53 Cloudy with Light Rain 54 12.2 46 7.8 75 75 N 6 9 30.04 1017 10 16 0.00 0.03
11:53 pm 23:53 Cloudy 53 11.7 45 7.2 74 74 N 7 11 30.02 1017 10 16 0.00 0.03

Powered by AerisWeather